Chico, CA

1:10 PM PDT on June 26, 2017 (GMT -0700)
Chico Municipal

Weather History for KCIC - August, 2013

Change the Weather History Date:

Thursday, August 22, 2013

  Actual Average (KOVE) Record (KOVE)
Temperature  
Mean Temperature 78 °F -  
Max Temperature 91 °F 92 °F 103 °F (1969)
Min Temperature 66 °F 59 °F 52 °F (1959)
Cooling Degree Days 14    
Growing Degree Days 28 (Base 50)    
Moisture  
Dew Point 51 °F    
Average Humidity 44    
Maximum Humidity 64    
Minimum Humidity 21    
Precipitation  
Precipitation 0.00 in - - ()
Sea Level Pressure  
Sea Level Pressure 29.85 in    
Wind  
Wind Speed 5 mph (SE)    
Max Wind Speed 9 mph    
Max Gust Speed -    
Visibility 10 miles    
Events      
Averages and records for this station are not official NWS values.
T = Trace of Precipitation, MM = Missing Value Source: NWS Daily Summary

Daily Weather History Graph

Daily Weather History Graph

Search for Another Location

Airport or City:

Trip Planner

Search our weather history database for the weather conditions in past years. The results will help you decide how hot, cold, wet, or windy it might be!

Date:

Astronomy

Aug. 22, 2013 Rise Set
Actual Time 6:26 AM PDT 7:53 PM PDT
Civil Twilight 5:58 AM PDT 8:21 PM PDT
Nautical Twilight 5:23 AM PDT 8:55 PM PDT
Astronomical Twilight 4:47 AM PDT 9:31 PM PDT
Moon 8:40 PM PDT (8/22) 8:20 AM PDT (8/22)
Length of Visible Light 14h 23m
Length of Day
13h 27m
Waning Gibbous, 96% of the Moon is Illuminated
Aug 22
Waning Gibbous
Aug 28
Last Quarter
Sep 5
New
Sep 12
First Quarter
Sep 19
Full

Hourly Weather History & Observations

Time (PDT) Temp. Heat Index Dew Point Humidity Pressure Visibility Wind Dir Wind Speed Gust Speed Precip Events Conditions
12:15 AM 77.0 °F - 50.0 °F 39% 29.85 in 10.0 mi NE 5.8 mph - N/A   Scattered Clouds
12:35 AM 77.0 °F - 50.0 °F 39% 29.85 in 10.0 mi Calm Calm - N/A   Scattered Clouds
12:55 AM 75.2 °F - 48.2 °F 38% 29.85 in 10.0 mi Calm Calm - N/A   Mostly Cloudy
1:15 AM 75.2 °F - 50.0 °F 41% 29.85 in 10.0 mi Calm Calm - N/A   Mostly Cloudy
1:35 AM 75.2 °F - 51.8 °F 44% 29.84 in 10.0 mi Calm Calm - N/A   Mostly Cloudy
1:55 AM 73.4 °F - 53.6 °F 50% 29.85 in 10.0 mi South 3.5 mph - N/A   Overcast
2:15 AM 73.4 °F - 51.8 °F 47% 29.85 in 10.0 mi SSE 4.6 mph - N/A   Overcast
2:35 AM 71.6 °F - 53.6 °F 53% 29.85 in 10.0 mi Calm Calm - N/A   Overcast
2:55 AM 71.6 °F - 51.8 °F 50% 29.85 in 10.0 mi SSE 5.8 mph - N/A   Overcast
3:15 AM 71.6 °F - 51.8 °F 50% 29.86 in 10.0 mi SE 6.9 mph - N/A   Overcast
3:35 AM 69.8 °F - 51.8 °F 53% 29.86 in 10.0 mi ESE 6.9 mph - N/A   Overcast
3:55 AM 69.8 °F - 51.8 °F 53% 29.86 in 10.0 mi SE 8.1 mph - N/A   Overcast
4:15 AM 68.0 °F - 51.8 °F 56% 29.86 in 10.0 mi SE 8.1 mph - N/A   Overcast
4:35 AM 68.0 °F - 53.6 °F 60% 29.86 in 10.0 mi SE 6.9 mph - N/A   Overcast
4:55 AM 68.0 °F - 51.8 °F 56% 29.85 in 10.0 mi SE 6.9 mph - N/A   Overcast
5:15 AM 68.0 °F - 51.8 °F 56% 29.85 in 10.0 mi SE 6.9 mph - N/A   Overcast
5:35 AM 68.0 °F - 51.8 °F 56% 29.85 in 10.0 mi SSE 5.8 mph - N/A   Overcast
5:55 AM 68.0 °F - 51.8 °F 56% 29.86 in 10.0 mi Calm Calm - N/A   Overcast
6:15 AM 66.2 °F - 51.8 °F 60% 29.87 in 10.0 mi SSE 6.9 mph - N/A   Mostly Cloudy
6:35 AM 68.0 °F - 51.8 °F 56% 29.87 in 10.0 mi SE 5.8 mph - N/A   Partly Cloudy
6:50 AM 66.2 °F - 53.6 °F 64% 29.88 in 40.0 mi SE 4.6 mph - N/A   Mostly Cloudy
6:55 AM 66.2 °F - 51.8 °F 60% 29.88 in 10.0 mi South 4.6 mph - N/A   Clear
7:15 AM 66.2 °F - 51.8 °F 60% 29.88 in 10.0 mi SSE 6.9 mph - N/A   Clear
7:35 AM 66.2 °F - 51.8 °F 60% 29.89 in 10.0 mi SSE 8.1 mph - N/A   Clear
7:50 AM 68.0 °F - 51.8 °F 56% 29.80 in 40.0 mi SE 5.8 mph - N/A   Mostly Cloudy
8:50 AM 69.8 °F - 51.8 °F 53% 29.90 in 40.0 mi SSE 4.6 mph - N/A   Mostly Cloudy
9:50 AM 71.6 °F - 53.6 °F 53% 29.91 in 40.0 mi SSE 4.6 mph - N/A   Mostly Cloudy
10:58 AM 77.0 °F - 51.8 °F 41% 29.91 in 40.0 mi SSE 4.6 mph - N/A   Mostly Cloudy
12:58 PM 84.2 °F - 50.0 °F 30% 29.88 in 40.0 mi SE 9.2 mph - N/A   Mostly Cloudy
1:52 PM 86.0 °F - 50.0 °F 29% 29.87 in 40.0 mi SE 5.8 mph - N/A   Mostly Cloudy
2:58 PM 89.6 °F - 48.2 °F 24% 29.84 in 40.0 mi South 9.2 mph - N/A   Scattered Clouds
3:50 PM 89.6 °F - 44.6 °F 21% 29.82 in 40.0 mi SSE 9.2 mph - N/A   Scattered Clouds
5:55 PM 91.4 °F - 46.4 °F 21% 29.80 in 40.0 mi SSE 9.2 mph - N/A   Partly Cloudy
6:50 PM 89.6 °F - 50.0 °F 26% 29.80 in 10.0 mi South 5.8 mph - N/A   Partly Cloudy
7:55 PM 86.0 °F 84.2 °F 53.6 °F 33% 29.80 in 10.0 mi SE 6.9 mph - N/A   Clear
8:15 PM 84.2 °F 82.8 °F 53.6 °F 35% 29.80 in 10.0 mi SE 4.6 mph - N/A   Clear
8:35 PM 82.4 °F 81.4 °F 53.6 °F 37% 29.81 in 10.0 mi SE 5.8 mph - N/A   Clear
8:55 PM 82.4 °F 81.4 °F 53.6 °F 37% 29.82 in 10.0 mi SE 6.9 mph - N/A   Clear
9:15 PM 80.6 °F 80.3 °F 53.6 °F 39% 29.83 in 10.0 mi SE 5.8 mph - N/A   Clear
9:35 PM 82.4 °F - 51.8 °F 35% 29.83 in 10.0 mi ESE 4.6 mph - N/A   Clear
9:55 PM 78.8 °F - 50.0 °F 36% 29.84 in 10.0 mi ESE 3.5 mph - N/A   Clear
10:15 PM 78.8 °F - 48.2 °F 34% 29.84 in 10.0 mi ESE 6.9 mph - N/A   Clear
10:35 PM 80.6 °F - 46.4 °F 30% 29.84 in 10.0 mi ESE 6.9 mph - N/A   Clear
10:55 PM 77.0 °F - 46.4 °F 34% 29.84 in 10.0 mi SSE 6.9 mph - N/A   Clear
11:15 PM 75.2 °F - 48.2 °F 38% 29.84 in 10.0 mi SSE 8.1 mph - N/A   Clear
11:35 PM 73.4 °F - 48.2 °F 41% 29.85 in 10.0 mi South 8.1 mph - N/A   Clear
11:55 PM 73.4 °F - 50.0 °F 44% 29.85 in 10.0 mi South 4.6 mph - N/A   Clear